Theta_e
313 315 317 308 304 314 301 299 299 304 308 313 319 320 322 322 325 326 329 330 335 337 338 340 340 341 343 342 341 343 343 343
310 315 315 313 313 304 301 294 293 300 303 304 311 314 318 320 322 325 326 331 336 337 339 340 341 342 343 343 342 343 343 344
305 302 303 306 305 304 306 301 296 293 299 312 313 316 319 323 326 325 327 332 336 337 335 339 341 342 343 343 343 344 344 343
299 305 307 308 307 305 300 298 297 295 301 314 316 319 320 322 325 327 329 334 336 337 337 339 339 341 342 343 344 344 344 341
294 296 299 302 305 307 302 301 298 297 300 316 315 319 321 320 321 323 328 333 335 335 336 337 339 340 342 343 343 342 340 339
294 294 297 299 304 305 301 297 298 299 304 307 314 317 319 320 322 323 329 333 334 334 336 338 338 340 342 343 343 341 340 338
297 299 299 298 299 302 301 302 300 305 302 306 310 315 320 323 324 323 326 331 333 334 335 337 337 338 341 343 342 342 340 339
295 296 299 297 299 299 298 300 303 304 305 310 313 319 322 322 323 324 326 332 334 335 336 337 337 338 340 342 341 341 340 340
290 294 295 292 297 299 299 303 304 301 305 314 316 319 319 320 323 327 329 333 334 335 336 338 338 341 340 342 343 340 339 340
291 292 287 296 299 302 301 302 310 310 311 315 317 318 322 325 327 328 331 334 335 337 338 338 341 342 343 343 342 339 336 338
290 289 293 298 301 300 298 299 307 311 314 316 322 321 321 329 331 328 328 334 336 339 339 338 340 342 342 342 341 339 334 333
291 290 289 297 304 308 303 296 317 318 315 317 318 312 316 326 331 330 332 332 336 338 339 338 338 341 341 340 339 336 335 335
292 291 296 303 307 310 296 299 317 319 316 318 314 316 319 326 326 329 330 332 335 338 337 338 340 341 339 339 337 339 337 337
291 290 291 306 309 303 309 315 318 317 316 318 319 323 323 324 325 327 327 333 336 337 338 341 341 341 339 338 341 342 341 340
295 294 301 303 305 312 316 317 318 320 323 324 324 324 325 324 324 327 330 330 338 338 339 341 343 342 339 340 343 343 346 345
295 297 300 304 306 307 314 314 320 320 322 324 324 326 325 327 326 329 332 334 337 338 338 339 343 343 342 342 346 346 346 347
294 297 301 304 305 306 311 315 315 317 321 322 322 321 324 326 326 327 330 332 332 334 336 338 342 343 343 346 348 346 347 348
292 297 297 300 304 308 308 308 311 313 313 316 321 320 322 323 323 323 324 327 328 332 333 333 342 341 344 349 350 348 346 347
296 299 301 303 305 307 308 309 310 308 309 309 312 319 318 319 321 319 319 321 327 331 335 338 336 343 348 351 352 350 348 348
Wind_Speed
4 7 10 3 2 5 5 2 2 4 8 8 6 6 6 7 8 11 10 18 20 20 16 14 14 15 14 11 9 11 10 8
7 5 5 7 12 5 3 4 5 4 6 7 6 8 7 8 15 17 11 14 16 17 15 14 13 12 11 10 11 10 9 8
6 5 9 3 2 6 6 6 6 3 8 10 11 9 10 10 10 13 15 15 15 13 9 9 11 11 10 10 10 9 9 8
10 6 4 5 7 7 6 5 3 2 10 3 9 10 9 9 7 7 10 15 15 14 10 10 10 10 11 10 10 10 9 8
9 7 1 6 7 6 6 5 7 6 10 1 3 6 7 8 7 6 10 13 15 13 16 14 10 11 11 11 11 8 7 7
13 11 6 5 6 6 7 4 5 8 13 6 8 9 9 7 6 9 16 18 17 15 11 12 10 12 11 10 9 8 8 7
10 9 5 6 5 8 8 9 8 17 9 11 7 11 12 7 5 8 16 18 18 17 16 17 14 12 10 10 10 11 9 9
8 4 8 6 8 8 6 4 8 4 11 9 4 7 9 10 9 12 19 19 17 18 18 17 16 14 13 12 11 11 11 10
3 2 4 4 9 7 5 5 5 5 12 4 4 10 10 10 8 15 18 17 18 19 19 17 18 17 16 14 11 13 12 10
3 2 5 9 5 4 7 6 8 6 6 6 6 1 7 8 9 10 12 16 15 16 15 15 13 13 13 13 14 11 12 13
5 4 5 5 4 5 6 9 6 9 6 5 4 4 3 5 5 8 6 11 15 16 17 14 15 14 14 14 12 12 12 12
1 5 6 8 6 4 4 6 8 8 10 8 7 4 8 13 10 10 11 9 14 14 11 11 13 13 15 14 14 15 14 14
1 1 7 7 9 2 3 10 5 5 11 13 9 7 4 7 2 4 11 12 12 17 17 16 14 14 14 14 17 16 12 11
2 2 6 14 10 2 8 3 4 1 5 11 2 5 3 4 7 7 9 7 14 15 14 14 15 17 15 17 15 12 13 13
5 4 5 9 9 10 5 4 3 3 4 8 8 1 4 5 4 5 4 3 6 13 14 15 17 18 17 15 13 13 13 13
2 4 11 15 20 17 7 6 4 3 4 5 8 7 5 6 4 4 5 3 4 8 11 12 13 15 18 12 13 15 14 13
4 7 9 13 15 18 16 13 11 10 7 6 7 7 6 6 8 6 5 6 6 6 3 5 8 11 9 14 15 13 12 12
3 4 3 9 10 12 12 12 9 6 7 6 6 6 4 7 5 4 7 5 7 7 5 4 6 6 6 12 15 15 12 11
2 5 4 9 8 7 7 8 10 9 7 5 5 3 3 3 3 5 5 7 7 6 4 1 4 8 11 13 14 16 14 13
Wind_Direction
182 162 154 209 154 155 89 36 3 234 290 298 287 227 204 211 214 216 210 195 190 193 187 168 173 181 181 166 172 176 191 194
204 116 113 175 161 89 42 215 255 267 275 237 236 220 216 233 242 234 209 191 196 193 184 177 176 173 170 161 173 180 184 194
100 167 184 122 247 50 130 161 190 267 263 216 206 198 183 205 246 225 196 178 184 184 180 168 161 162 160 158 167 181 187 186
207 217 171 170 172 147 144 227 234 194 272 326 196 207 160 180 234 196 193 170 169 172 146 161 167 160 159 165 177 187 187 178
335 347 48 192 191 177 132 98 202 152 263 123 191 225 223 198 210 200 178 170 167 157 175 165 158 169 169 174 186 172 160 161
217 208 166 176 190 182 128 126 190 220 260 267 206 216 250 234 220 192 182 184 176 167 163 157 165 176 174 174 172 161 156 157
224 192 187 186 167 162 176 211 171 248 210 254 203 202 217 218 251 197 195 185 181 165 164 177 164 175 167 170 164 159 160 168
241 182 176 203 208 211 200 154 250 263 279 220 167 128 176 218 235 208 198 186 173 168 164 170 172 176 171 170 169 163 170 170
232 111 121 308 221 195 183 169 170 200 237 197 200 178 204 218 223 199 191 173 169 171 171 173 175 175 178 172 160 172 169 170
188 84 219 239 292 223 193 214 207 272 259 203 234 171 176 212 187 173 171 167 173 166 175 177 174 167 168 163 183 170 172 167
146 184 273 296 266 172 170 269 215 220 147 168 124 65 305 222 193 157 158 169 169 171 179 160 170 167 167 173 167 178 183 172
136 145 191 236 280 260 104 262 218 218 159 161 147 143 239 201 211 164 161 162 157 160 162 166 159 164 168 167 172 186 193 179
176 234 288 260 288 31 192 241 276 236 168 166 198 201 296 181 96 136 145 162 159 159 171 176 156 160 177 171 190 187 183 172
103 96 264 2 326 50 230 281 271 356 160 173 127 326 351 312 125 143 163 135 159 166 175 166 164 166 178 188 189 172 168 170
162 219 284 311 281 304 327 210 206 141 144 144 138 37 354 313 297 153 180 131 182 172 168 169 170 180 181 195 167 167 165 173
55 349 335 360 360 353 341 343 350 93 87 39 90 80 59 55 61 105 105 130 158 170 173 174 179 183 199 163 164 168 171 173
328 335 345 356 358 352 355 11 21 17 18 62 74 64 79 72 62 51 60 56 77 111 134 191 185 184 170 162 161 170 173 174
191 268 204 278 313 335 349 343 343 53 48 13 61 65 65 73 69 73 67 61 76 79 104 157 165 161 163 167 169 165 173 176
266 286 261 277 288 328 327 334 359 35 9 45 16 43 78 81 54 78 70 58 71 72 57 63 219 191 177 174 177 179 181 181